^^
Your Local Weather - Clay, NY Station Historical Data
Daily Summary for July 9, 2017 Units:  English    Metric   Both
« Previous Day
Next Day »
Daily Weekly Monthly Yearly Custom
  High: Low: Average:
Temperature: 79.0 °F 56.9 °F 68 °F
Dew Point: 61.4 °F 50.6 °F 54.8 °F
Humidity: 85% 46% 64%
Wind Speed: 5.0mph 0.0mph 1.4mph
Wind Gust: 9.0mph - -
Wind- - WSW
Pressure: 29.95 in 29.85 in -
Precipitation: 0.00 in    
Historical Graphs
 
 
Tabular Data for July 9, 2017
Time Temperature Dew Point Pressure Wind Wind Speed Wind Gust Humidity Rainfall Rate (Hourly) solar
00:00 61.2 °F 52.8 °F 29.85 in Calm     74% 0.00 in 0 W/m2
00:06 61.0 °F 52.7 °F 29.85 in Calm     74% 0.00 in 0 W/m2
00:12 60.9 °F 52.6 °F 29.85 in Calm     74% 0.00 in 0 W/m2
00:18 60.8 °F 52.5 °F 29.85 in Calm     74% 0.00 in 0 W/m2
00:24 60.7 °F 52.4 °F 29.85 in Calm   1.0 mph 74% 0.00 in 0 W/m2
00:30 60.6 °F 52.6 °F 29.85 in Calm     75% 0.00 in 0 W/m2
00:36 60.4 °F 52.4 °F 29.85 in Calm     75% 0.00 in 0 W/m2
00:42 60.3 °F 52.3 °F 29.85 in Calm     75% 0.00 in 0 W/m2
00:48 60.2 °F 52.2 °F 29.85 in Calm   1.0 mph 75% 0.00 in 0 W/m2
00:54 60.2 °F 52.2 °F 29.85 in WSW 1.0 mph 2.0 mph 75% 0.00 in 0 W/m2
01:00 60.3 °F 52.3 °F 29.85 in WSW 1.0 mph 1.0 mph 75% 0.00 in 0 W/m2
01:06 60.2 °F 52.2 °F 29.85 in WSW 1.0 mph 3.0 mph 75% 0.00 in 0 W/m2
01:12 60.3 °F 52.0 °F 29.85 in WSW 1.0 mph 1.0 mph 74% 0.00 in 0 W/m2
01:18 60.4 °F 52.1 °F 29.86 in WSW 1.0 mph 1.0 mph 74% 0.00 in 0 W/m2
01:24 60.2 °F 51.9 °F 29.85 in Calm   1.0 mph 74% 0.00 in 0 W/m2
01:30 60.0 °F 52.1 °F 29.85 in Calm     75% 0.00 in 0 W/m2
01:36 60.0 °F 52.1 °F 29.86 in WSW 1.0 mph 2.0 mph 75% 0.00 in 0 W/m2
01:42 60.0 °F 52.1 °F 29.86 in WSW 1.0 mph 1.0 mph 75% 0.00 in 0 W/m2
01:50 59.7 °F 51.8 °F 29.86 in Calm     75% 0.00 in 0 W/m2
01:56 59.6 °F 51.7 °F 29.86 in SW 1.0 mph 2.0 mph 75% 0.00 in 0 W/m2
02:02 59.6 °F 51.7 °F 29.86 in WSW 1.0 mph 4.0 mph 75% 0.00 in 0 W/m2
02:08 59.8 °F 51.9 °F 29.86 in WSW 2.0 mph 4.0 mph 75% 0.00 in 0 W/m2
02:14 59.8 °F 51.9 °F 29.87 in WSW 2.0 mph 4.0 mph 75% 0.00 in 0 W/m2
02:20 59.8 °F 51.5 °F 29.87 in WSW 1.0 mph 1.0 mph 74% 0.00 in 0 W/m2
02:26 59.6 °F 51.3 °F 29.86 in Calm   1.0 mph 74% 0.00 in 0 W/m2
02:32 59.5 °F 51.2 °F 29.86 in Calm   1.0 mph 74% 0.00 in 0 W/m2
02:38 59.4 °F 51.1 °F 29.86 in WSW 1.0 mph 1.0 mph 74% 0.00 in 0 W/m2
02:44 59.2 °F 51.3 °F 29.86 in WSW 1.0 mph 1.0 mph 75% 0.00 in 0 W/m2
02:50 59.1 °F 51.2 °F 29.87 in WSW 1.0 mph 1.0 mph 75% 0.00 in 0 W/m2
02:56 59.0 °F 51.1 °F 29.87 in WSW 1.0 mph 3.0 mph 75% 0.00 in 0 W/m2
03:02 58.9 °F 51.3 °F 29.86 in WSW 1.0 mph 1.0 mph 76% 0.00 in 0 W/m2
03:08 58.8 °F 51.2 °F 29.86 in Calm   1.0 mph 76% 0.00 in 0 W/m2
03:14 58.6 °F 51.1 °F 29.87 in Calm     76% 0.00 in 0 W/m2
03:20 58.3 °F 51.1 °F 29.87 in Calm     77% 0.00 in 0 W/m2
03:26 58.1 °F 50.9 °F 29.87 in Calm     77% 0.00 in 0 W/m2
03:32 58.0 °F 50.8 °F 29.87 in Calm   3.0 mph 77% 0.00 in 0 W/m2
03:38 58.2 °F 51.0 °F 29.87 in WSW 1.0 mph 3.0 mph 77% 0.00 in 0 W/m2
03:44 58.3 °F 51.1 °F 29.87 in WSW 1.0 mph 2.0 mph 77% 0.00 in 0 W/m2
03:50 58.2 °F 51.0 °F 29.87 in WSW 1.0 mph 1.0 mph 77% 0.00 in 0 W/m2
03:56 58.2 °F 51.0 °F 29.87 in WSW 1.0 mph 1.0 mph 77% 0.00 in 0 W/m2
04:02 58.1 °F 50.9 °F 29.87 in Calm     77% 0.00 in 0 W/m2
04:08 57.9 °F 50.7 °F 29.87 in Calm     77% 0.00 in 0 W/m2
04:14 57.7 °F 50.9 °F 29.87 in Calm   2.0 mph 78% 0.00 in 0 W/m2
04:20 57.6 °F 50.8 °F 29.87 in Calm     78% 0.00 in 0 W/m2
04:26 57.5 °F 50.7 °F 29.87 in Calm     78% 0.00 in 0 W/m2
04:32 57.3 °F 50.8 °F 29.88 in Calm   1.0 mph 79% 0.00 in 0 W/m2
04:38 57.3 °F 50.8 °F 29.88 in Calm   1.0 mph 79% 0.00 in 0 W/m2
04:44 57.3 °F 50.8 °F 29.88 in WSW 1.0 mph 1.0 mph 79% 0.00 in 0 W/m2
04:50 57.4 °F 50.9 °F 29.88 in Calm     79% 0.00 in 0 W/m2
04:56 57.4 °F 50.9 °F 29.88 in Calm     79% 0.00 in 0 W/m2
05:02 57.1 °F 50.6 °F 29.88 in Calm     79% 0.00 in 0 W/m2
05:08 57.0 °F 50.9 °F 29.88 in Calm   2.0 mph 80% 0.00 in 0 W/m2
05:14 56.9 °F 50.8 °F 29.88 in Calm   3.0 mph 80% 0.00 in 0 W/m2
05:20 57.0 °F 50.9 °F 29.88 in Calm     80% 0.00 in 0 W/m2
05:26 57.1 °F 50.6 °F 29.88 in Calm   1.0 mph 79% 0.00 in 0 W/m2
05:32 57.3 °F 50.8 °F 29.88 in WSW 1.0 mph 1.0 mph 79% 0.00 in 0 W/m2
05:38 57.3 °F 50.8 °F 29.88 in WSW 1.0 mph 3.0 mph 79% 0.00 in 0 W/m2
05:44 57.4 °F 50.6 °F 29.89 in WSW 1.0 mph 3.0 mph 78% 0.00 in 5 W/m2
05:50 57.3 °F 50.8 °F 29.89 in Calm     79% 0.00 in 7 W/m2
05:56 57.2 °F 50.7 °F 29.89 in Calm     79% 0.00 in 9 W/m2
06:02 57.0 °F 50.9 °F 29.90 in Calm     80% 0.00 in 12 W/m2
06:08 56.9 °F 50.8 °F 29.90 in Calm   1.0 mph 80% 0.00 in 14 W/m2
06:14 57.0 °F 50.9 °F 29.90 in WSW 1.0 mph 2.0 mph 80% 0.00 in 18 W/m2
06:20 57.1 °F 51.0 °F 29.90 in Calm     80% 0.00 in 21 W/m2
06:26 57.3 °F 51.2 °F 29.90 in WSW 1.0 mph 1.0 mph 80% 0.00 in 49 W/m2
06:32 57.8 °F 51.3 °F 29.91 in WSW 1.0 mph 1.0 mph 79% 0.00 in 107 W/m2
06:38 58.4 °F 51.9 °F 29.91 in WSW 1.0 mph 2.0 mph 79% 0.00 in 127 W/m2
06:44 59.0 °F 51.8 °F 29.91 in WSW 1.0 mph 5.0 mph 77% 0.00 in 139 W/m2
06:50 59.7 °F 52.5 °F 29.92 in WSW 1.0 mph 4.0 mph 77% 0.00 in 155 W/m2
06:56 60.1 °F 52.5 °F 29.92 in WSW 1.0 mph 4.0 mph 76% 0.00 in 171 W/m2
07:02 60.7 °F 52.7 °F 29.92 in WSW 2.0 mph 3.0 mph 75% 0.00 in 188 W/m2
07:08 61.2 °F 52.8 °F 29.91 in WSW 1.0 mph 3.0 mph 74% 0.00 in 211 W/m2
07:14 61.6 °F 52.9 °F 29.91 in WSW 1.0 mph 3.0 mph 73% 0.00 in 258 W/m2
07:20 62.2 °F 52.7 °F 29.91 in SSW 2.0 mph 4.0 mph 71% 0.00 in 258 W/m2
07:26 62.7 °F 52.8 °F 29.91 in SW 3.0 mph 4.0 mph 70% 0.00 in 199 W/m2
07:32 63.2 °F 53.3 °F 29.92 in SW 2.0 mph 2.0 mph 70% 0.00 in 276 W/m2
07:38 63.6 °F 53.2 °F 29.92 in SW 1.0 mph 2.0 mph 69% 0.00 in 295 W/m2
07:44 64.0 °F 52.8 °F 29.92 in SW 1.0 mph 3.0 mph 67% 0.00 in 311 W/m2
07:50 64.2 °F 52.6 °F 29.92 in West 2.0 mph 5.0 mph 66% 0.00 in 323 W/m2
07:56 64.5 °F 53.7 °F 29.93 in SW 2.0 mph 5.0 mph 68% 0.00 in 343 W/m2
08:02 65.2 °F 53.1 °F 29.93 in WSW 1.0 mph 1.0 mph 65% 0.00 in 359 W/m2
08:08 65.2 °F 52.7 °F 29.93 in SSW 1.0 mph 3.0 mph 64% 0.00 in 378 W/m2
08:14 65.5 °F 53.4 °F 29.93 in WSW 2.0 mph 4.0 mph 65% 0.00 in 148 W/m2
08:20 65.8 °F 53.3 °F 29.93 in SW 1.0 mph 1.0 mph 64% 0.00 in 408 W/m2
08:26 66.1 °F 53.1 °F 29.93 in SSW 2.0 mph 4.0 mph 63% 0.00 in 429 W/m2
08:32 66.6 °F 52.7 °F 29.93 in SW 2.0 mph 2.0 mph 61% 0.00 in 462 W/m2
08:38 67.0 °F 53.1 °F 29.93 in SW 2.0 mph 2.0 mph 61% 0.00 in 464 W/m2
08:44 67.1 °F 52.3 °F 29.93 in SSW 2.0 mph 7.0 mph 59% 0.00 in 480 W/m2
08:50 67.2 °F 52.8 °F 29.93 in SSW 3.0 mph 3.0 mph 60% 0.00 in 489 W/m2
08:56 67.5 °F 52.7 °F 29.93 in SW 3.0 mph 3.0 mph 59% 0.00 in 510 W/m2
09:02 67.7 °F 51.9 °F 29.93 in SSW 4.0 mph 6.0 mph 57% 0.00 in 529 W/m2
09:08 68.1 °F 52.3 °F 29.93 in West 3.0 mph 6.0 mph 57% 0.00 in 550 W/m2
09:16 68.4 °F 52.6 °F 29.93 in WSW 3.0 mph 3.0 mph 57% 0.00 in 640 W/m2
09:22 68.6 °F 53.7 °F 29.93 in SW 4.0 mph 4.0 mph 59% 0.00 in 323 W/m2
09:28 68.9 °F 52.1 °F 29.93 in SW 2.0 mph 4.0 mph 55% 0.00 in 229 W/m2
09:34 69.2 °F 54.3 °F 29.93 in WSW 2.0 mph 4.0 mph 59% 0.00 in 661 W/m2
09:40 69.8 °F 55.3 °F 29.93 in SW 2.0 mph 2.0 mph 60% 0.00 in 582 W/m2
09:46 70.0 °F 55.0 °F 29.93 in SW 2.0 mph 5.0 mph 59% 0.00 in 782 W/m2
09:54 69.8 °F 52.9 °F 29.94 in WSW 1.0 mph 4.0 mph 55% 0.00 in 355 W/m2
10:00 70.0 °F 54.5 °F 29.94 in SW 2.0 mph 2.0 mph 58% 0.00 in 700 W/m2
10:06 70.6 °F 55.1 °F 29.94 in NW 2.0 mph 4.0 mph 58% 0.00 in 708 W/m2
10:12 70.9 °F 53.9 °F 29.94 in West 3.0 mph 3.0 mph 55% 0.00 in 722 W/m2
10:18 70.9 °F 54.9 °F 29.94 in SW 3.0 mph 3.0 mph 57% 0.00 in 738 W/m2
10:24 70.8 °F 53.8 °F 29.94 in SSW 3.0 mph 5.0 mph 55% 0.00 in 752 W/m2
10:30 70.9 °F 55.9 °F 29.94 in SSW 4.0 mph 7.0 mph 59% 0.00 in 765 W/m2
10:36 71.3 °F 55.3 °F 29.94 in WNW 3.0 mph 7.0 mph 57% 0.00 in 779 W/m2
10:42 71.5 °F 55.9 °F 29.94 in SW 3.0 mph 4.0 mph 58% 0.00 in 791 W/m2
10:48 71.8 °F 54.8 °F 29.95 in SSW 2.0 mph 4.0 mph 55% 0.00 in 800 W/m2
10:54 72.0 °F 54.4 °F 29.95 in WSW 3.0 mph 5.0 mph 54% 0.00 in 842 W/m2
11:00 72.2 °F 56.6 °F 29.95 in SW 3.0 mph 3.0 mph 58% 0.00 in 867 W/m2
11:06 73.4 °F 57.7 °F 29.94 in WSW 2.0 mph 3.0 mph 58% 0.00 in 844 W/m2
11:12 73.0 °F 54.9 °F 29.94 in SSW 2.0 mph 5.0 mph 53% 0.00 in 840 W/m2
11:18 72.5 °F 55.9 °F 29.94 in SSE 4.0 mph 5.0 mph 56% 0.00 in 865 W/m2
11:26 73.7 °F 58.5 °F 29.95 in NW 3.0 mph 6.0 mph 59% 0.00 in 895 W/m2
11:32 74.1 °F 56.4 °F 29.95 in SSW 1.0 mph 2.0 mph 54% 0.00 in 935 W/m2
11:38 74.4 °F 56.7 °F 29.95 in West 2.0 mph 2.0 mph 54% 0.00 in 884 W/m2
11:44 74.3 °F 58.1 °F 29.95 in WSW 2.0 mph 5.0 mph 57% 0.00 in 900 W/m2
11:50 74.6 °F 57.4 °F 29.95 in WSW 2.0 mph 5.0 mph 55% 0.00 in 937 W/m2
11:56 74.8 °F 57.0 °F 29.95 in SW 3.0 mph 5.0 mph 54% 0.00 in 969 W/m2
12:02 73.8 °F 57.1 °F 29.95 in SW 3.0 mph 3.0 mph 56% 0.00 in 557 W/m2
12:08 75.3 °F 60.0 °F 29.95 in West 3.0 mph 3.0 mph 59% 0.00 in 1181 W/m2
12:14 75.7 °F 57.4 °F 29.95 in WSW 2.0 mph 3.0 mph 53% 0.00 in 1093 W/m2
12:20 76.6 °F 57.7 °F 29.95 in WSW 2.0 mph 4.0 mph 52% 0.00 in 1137 W/m2
12:26 76.2 °F 57.8 °F 29.95 in WNW 2.0 mph 4.0 mph 53% 0.00 in 826 W/m2
12:32 76.4 °F 59.0 °F 29.94 in WSW 1.0 mph 2.0 mph 55% 0.00 in 826 W/m2
12:38 76.3 °F 57.9 °F 29.94 in NW 2.0 mph 8.0 mph 53% 0.00 in 969 W/m2
12:44 75.7 °F 57.4 °F 29.94 in SSW 2.0 mph 3.0 mph 53% 0.00 in 926 W/m2
12:50 76.7 °F 60.8 °F 29.94 in NNW 2.0 mph 5.0 mph 58% 0.00 in 1139 W/m2
12:56 75.8 °F 57.4 °F 29.94 in West 3.0 mph 5.0 mph 53% 0.00 in 534 W/m2
13:02 76.6 °F 57.1 °F 29.93 in SSE 3.0 mph 5.0 mph 51% 0.00 in 1301 W/m2
13:08 76.1 °F 56.7 °F 29.93 in West 3.0 mph 5.0 mph 51% 0.00 in 448 W/m2
13:14 75.6 °F 59.3 °F 29.94 in WNW 2.0 mph 3.0 mph 57% 0.00 in 352 W/m2
13:20 75.8 °F 56.9 °F 29.94 in WNW 1.0 mph 2.0 mph 52% 0.00 in 1013 W/m2
13:26 76.4 °F 56.9 °F 29.93 in West 1.0 mph 4.0 mph 51% 0.00 in 981 W/m2
13:32 77.1 °F 60.2 °F 29.93 in East 2.0 mph 3.0 mph 56% 0.00 in 1041 W/m2
13:38 77.0 °F 56.4 °F 29.93 in WNW 2.0 mph 4.0 mph 49% 0.00 in 211 W/m2
13:44 76.8 °F 61.4 °F 29.93 in NW 2.0 mph 3.0 mph 59% 0.00 in 1072 W/m2
13:50 76.2 °F 58.3 °F 29.93 in NW 2.0 mph 2.0 mph 54% 0.00 in 390 W/m2
13:56 77.0 °F 55.2 °F 29.93 in SW 3.0 mph 3.0 mph 47% 0.00 in 1150 W/m2
14:02 76.4 °F 55.8 °F 29.93 in WSW 3.0 mph 5.0 mph 49% 0.00 in 357 W/m2
14:08 76.9 °F 58.5 °F 29.93 in SW 2.0 mph 5.0 mph 53% 0.00 in 360 W/m2
14:14 77.5 °F 57.9 °F 29.93 in WSW 2.0 mph 2.0 mph 51% 0.00 in 1085 W/m2
14:20 77.4 °F 58.4 °F 29.93 in West 2.0 mph 2.0 mph 52% 0.00 in 322 W/m2
14:26 76.6 °F 56.6 °F 29.93 in SSW 2.0 mph 4.0 mph 50% 0.00 in 508 W/m2
14:32 76.2 °F 57.3 °F 29.93 in West 3.0 mph 3.0 mph 52% 0.00 in 401 W/m2
14:38 76.1 °F 57.2 °F 29.93 in SW 2.0 mph 6.0 mph 52% 0.00 in 427 W/m2
14:44 76.1 °F 57.2 °F 29.93 in WSW 3.0 mph 8.0 mph 52% 0.00 in 501 W/m2
14:50 77.7 °F 61.3 °F 29.93 in WNW 3.0 mph 3.0 mph 57% 0.00 in 1009 W/m2
14:56 77.6 °F 56.9 °F 29.93 in SW 3.0 mph 9.0 mph 49% 0.00 in 1007 W/m2
15:02 77.8 °F 57.1 °F 29.93 in WSW 5.0 mph 5.0 mph 49% 0.00 in 1016 W/m2
15:08 77.8 °F 58.2 °F 29.93 in NW 4.0 mph 6.0 mph 51% 0.00 in 1013 W/m2
15:14 78.0 °F 57.9 °F 29.93 in SW 2.0 mph 3.0 mph 50% 0.00 in 308 W/m2
15:20 78.0 °F 57.3 °F 29.93 in WSW 2.0 mph 2.0 mph 49% 0.00 in 360 W/m2
15:26 77.1 °F 56.5 °F 29.93 in West 2.0 mph 2.0 mph 49% 0.00 in 413 W/m2
15:32 77.2 °F 57.7 °F 29.93 in WSW 2.0 mph 4.0 mph 51% 0.00 in 408 W/m2
15:38 77.2 °F 54.8 °F 29.93 in WSW 3.0 mph 4.0 mph 46% 0.00 in 454 W/m2
15:44 77.9 °F 57.8 °F 29.93 in WNW 2.0 mph 3.0 mph 50% 0.00 in 352 W/m2
15:50 78.9 °F 57.0 °F 29.93 in WSW 2.0 mph 4.0 mph 47% 0.00 in 538 W/m2
15:56 77.9 °F 57.2 °F 29.93 in WSW 3.0 mph 4.0 mph 49% 0.00 in 541 W/m2
16:02 78.8 °F 59.1 °F 29.92 in SSW 1.0 mph 2.0 mph 51% 0.00 in 759 W/m2
16:08 79.0 °F 57.6 °F 29.92 in SW 2.0 mph 2.0 mph 48% 0.00 in 225 W/m2
16:14 78.1 °F 57.9 °F 29.92 in WSW 2.0 mph 2.0 mph 50% 0.00 in 868 W/m2
16:20 77.9 °F 56.6 °F 29.92 in WSW 2.0 mph 2.0 mph 48% 0.00 in 257 W/m2
16:26 78.1 °F 57.4 °F 29.92 in West 3.0 mph 9.0 mph 49% 0.00 in 853 W/m2
16:32 78.4 °F 57.7 °F 29.92 in West 4.0 mph 9.0 mph 49% 0.00 in 378 W/m2
16:38 78.0 °F 57.3 °F 29.92 in SW 4.0 mph 9.0 mph 49% 0.00 in 250 W/m2
16:44 77.8 °F 58.2 °F 29.92 in WSW 3.0 mph 4.0 mph 51% 0.00 in 223 W/m2
16:50 77.8 °F 57.1 °F 29.91 in SW 4.0 mph 4.0 mph 49% 0.00 in 216 W/m2
16:56 78.3 °F 58.1 °F 29.91 in SW 3.0 mph 8.0 mph 50% 0.00 in 197 W/m2
17:02 77.9 °F 56.6 °F 29.91 in WSW 4.0 mph 5.0 mph 48% 0.00 in 151 W/m2
17:08 77.6 °F 56.4 °F 29.91 in West 4.0 mph 6.0 mph 48% 0.00 in 116 W/m2
17:14 77.6 °F 56.9 °F 29.91 in WSW 3.0 mph 7.0 mph 49% 0.00 in 137 W/m2
17:20 77.6 °F 56.4 °F 29.91 in SW 4.0 mph 4.0 mph 48% 0.00 in 95 W/m2
17:26 77.6 °F 57.5 °F 29.91 in WSW 4.0 mph 4.0 mph 50% 0.00 in 88 W/m2
17:32 77.5 °F 56.3 °F 29.91 in SW 3.0 mph 6.0 mph 48% 0.00 in 83 W/m2
17:38 77.5 °F 55.7 °F 29.91 in SW 4.0 mph 6.0 mph 47% 0.00 in 81 W/m2
17:44 77.6 °F 55.8 °F 29.91 in WSW 4.0 mph 5.0 mph 47% 0.00 in 62 W/m2
17:50 77.6 °F 55.8 °F 29.91 in WSW 4.0 mph 4.0 mph 47% 0.00 in 56 W/m2
17:56 77.5 °F 56.3 °F 29.91 in SSW 4.0 mph 5.0 mph 48% 0.00 in 60 W/m2
17:58 77.5 °F 57.9 °F 29.91 in SSW 3.0 mph 5.0 mph 51% 0.00 in 58 W/m2
18:06 77.7 °F 56.4 °F 29.90 in WSW 3.0 mph 6.0 mph 48% 0.00 in 67 W/m2
18:12 77.8 °F 57.1 °F 29.90 in SW 4.0 mph 4.0 mph 49% 0.00 in 74 W/m2
18:18 77.7 °F 56.4 °F 29.90 in WSW 3.0 mph 4.0 mph 48% 0.00 in 63 W/m2
18:24 77.7 °F 55.3 °F 29.91 in South 3.0 mph 4.0 mph 46% 0.00 in 69 W/m2
18:30 77.7 °F 55.3 °F 29.91 in WSW 3.0 mph 3.0 mph 46% 0.00 in 54 W/m2
18:36 77.4 °F 55.0 °F 29.91 in WSW 3.0 mph 3.0 mph 46% 0.00 in 54 W/m2
18:42 77.3 °F 57.2 °F 29.91 in West 3.0 mph 3.0 mph 50% 0.00 in 60 W/m2
18:48 77.2 °F 55.4 °F 29.91 in SW 2.0 mph 3.0 mph 47% 0.00 in 53 W/m2
18:54 76.9 °F 55.1 °F 29.91 in WSW 1.0 mph 3.0 mph 47% 0.00 in 44 W/m2
19:00 76.5 °F 55.9 °F 29.91 in WSW 1.0 mph 2.0 mph 49% 0.00 in 63 W/m2
19:06 76.2 °F 55.1 °F 29.91 in WSW 1.0 mph 4.0 mph 48% 0.00 in 56 W/m2
19:12 75.8 °F 54.7 °F 29.91 in WSW 1.0 mph 1.0 mph 48% 0.00 in 54 W/m2
19:18 75.6 °F 55.6 °F 29.91 in Calm   2.0 mph 50% 0.00 in 58 W/m2
19:24 75.6 °F 55.6 °F 29.91 in Calm   1.0 mph 50% 0.00 in 53 W/m2
19:30 75.4 °F 55.5 °F 29.91 in Calm     50% 0.00 in 53 W/m2
19:36 75.3 °F 54.3 °F 29.91 in Calm   3.0 mph 48% 0.00 in 40 W/m2
19:42 75.4 °F 54.3 °F 29.91 in Calm   2.0 mph 48% 0.00 in 32 W/m2
19:48 75.2 °F 54.2 °F 29.91 in Calm   2.0 mph 48% 0.00 in 33 W/m2
19:54 75.2 °F 54.2 °F 29.91 in Calm   1.0 mph 48% 0.00 in 30 W/m2
20:00 75.1 °F 54.1 °F 29.91 in Calm     48% 0.00 in 25 W/m2
20:06 74.4 °F 59.6 °F 29.91 in Calm     60% 0.00 in 18 W/m2
20:12 72.9 °F 59.1 °F 29.91 in Calm     62% 0.00 in 14 W/m2
20:18 71.8 °F 58.5 °F 29.91 in Calm     63% 0.00 in 11 W/m2
20:24 70.9 °F 58.5 °F 29.91 in Calm     65% 0.00 in 11 W/m2
20:30 69.8 °F 57.1 °F 29.91 in Calm     64% 0.00 in 7 W/m2
20:36 69.2 °F 56.5 °F 29.91 in Calm     64% 0.00 in 5 W/m2
20:42 68.6 °F 56.4 °F 29.91 in Calm     65% 0.00 in 0 W/m2
20:48 68.2 °F 56.8 °F 29.91 in Calm     67% 0.00 in 0 W/m2
20:54 67.8 °F 56.4 °F 29.91 in Calm     67% 0.00 in 0 W/m2
20:58 67.6 °F 57.5 °F 29.91 in Calm     70% 0.00 in 0 W/m2
21:04 67.5 °F 58.5 °F 29.91 in Calm     73% 0.00 in 0 W/m2
21:10 67.2 °F 59.0 °F 29.91 in Calm     75% 0.00 in 0 W/m2
21:16 66.8 °F 58.6 °F 29.91 in Calm     75% 0.00 in 0 W/m2
21:22 66.4 °F 57.9 °F 29.91 in Calm     74% 0.00 in 0 W/m2
21:28 66.1 °F 57.9 °F 29.92 in Calm     75% 0.00 in 0 W/m2
21:34 65.6 °F 56.3 °F 29.92 in Calm     72% 0.00 in 0 W/m2
21:40 65.4 °F 56.5 °F 29.92 in Calm     73% 0.00 in 0 W/m2
21:46 65.2 °F 56.7 °F 29.92 in Calm     74% 0.00 in 0 W/m2
21:52 65.1 °F 57.7 °F 29.92 in Calm     77% 0.00 in 0 W/m2
21:58 64.9 °F 57.2 °F 29.93 in Calm     76% 0.00 in 0 W/m2
22:04 64.7 °F 57.0 °F 29.93 in Calm     76% 0.00 in 0 W/m2
22:10 64.4 °F 56.7 °F 29.93 in Calm     76% 0.00 in 0 W/m2
22:16 64.1 °F 56.4 °F 29.93 in Calm     76% 0.00 in 0 W/m2
22:22 63.8 °F 56.4 °F 29.93 in Calm     77% 0.00 in 0 W/m2
22:28 63.5 °F 56.5 °F 29.93 in Calm     78% 0.00 in 0 W/m2
22:34 63.4 °F 56.8 °F 29.93 in Calm     79% 0.00 in 0 W/m2
22:40 63.2 °F 56.6 °F 29.93 in Calm     79% 0.00 in 0 W/m2
22:46 63.1 °F 56.8 °F 29.93 in Calm     80% 0.00 in 0 W/m2
22:52 62.9 °F 56.6 °F 29.93 in Calm     80% 0.00 in 0 W/m2
22:58 62.7 °F 56.4 °F 29.93 in Calm     80% 0.00 in 0 W/m2
23:04 62.6 °F 56.7 °F 29.93 in Calm     81% 0.00 in 0 W/m2
23:10 62.4 °F 56.5 °F 29.93 in Calm     81% 0.00 in 0 W/m2
23:16 62.4 °F 57.2 °F 29.93 in Calm     83% 0.00 in 0 W/m2
23:22 62.2 °F 57.0 °F 29.93 in Calm     83% 0.00 in 0 W/m2
23:28 62.0 °F 56.8 °F 29.93 in Calm     83% 0.00 in 0 W/m2
23:34 62.0 °F 57.1 °F 29.93 in Calm     84% 0.00 in 0 W/m2
23:40 61.9 °F 57.3 °F 29.93 in Calm     85% 0.00 in 0 W/m2
23:46 61.9 °F 57.3 °F 29.93 in Calm     85% 0.00 in 0 W/m2
23:52 61.8 °F 57.2 °F 29.93 in Calm     85% 0.00 in 0 W/m2
23:58 61.7 °F 57.1 °F 29.93 in Calm     85% 0.00 in 0 W/m2
Country Meadow, Clay, NY, USA
Compliments of Weather Underground - 2 mb